Terminal Aerodrome Forecast
Issued by NWS Houston/Galveston TX

Home | Current Version | Previous Version | Text Only | Print | Product List | Glossary On
Versions: 1 2 3 4 5 6 7 8 9 10 11 12 13 14 15 16 17 18 19 20 21 22 23 24 25 26 27 28 29 30 31 32 33 34 35 36 37 38 39 40 41 42 43 44 45 46 47 48 49 50
000
FTUS44 KHGX 251731
TAFHOU
TAF
KHOU 251731Z 2518/2618 26007KT P6SM SCT035
     FM260400 19006KT P6SM MIFG FEW012
     FM260700 00000KT 5SM BR SKC
      TEMPO 2609/2612 00000KT 4SM BR SCT004
     FM261400 13004KT P6SM FEW120=

USA.gov is the U.S. government's official web portal to all federal, state and local government web resources and services.